Radiation Dose measured at exhaust stack monitor of Fukushima Daiichi Nuclear Power Station
Date,Time,Unit 5 6 shared exhaust cylinders,Wind Direction,Wind Velocity(m/s)
2023/09/08,00:00,3.7,east-northeast,4.8
2023/09/08,00:10,3.6,east-northeast,5.2
2023/09/08,00:20,3.7,east-northeast,4.2
2023/09/08,00:30,3.7,east-northeast,5.1
2023/09/08,00:40,3.6,east-northeast,6.0
2023/09/08,00:50,3.6,northeast,5.2
2023/09/08,01:00,3.7,northeast,7.4
2023/09/08,01:10,3.6,northeast,7.4
2023/09/08,01:20,3.7,northeast,7.8
2023/09/08,01:30,3.7,northeast,7.7
2023/09/08,01:40,3.7,northeast,8.4
2023/09/08,01:50,3.8,northeast,7.9
2023/09/08,02:00,3.7,northeast,8.0
2023/09/08,02:10,3.6,northeast,7.6
2023/09/08,02:20,3.7,east-northeast,8.2
2023/09/08,02:30,3.7,northeast,7.6
2023/09/08,02:40,3.5,northeast,6.3
2023/09/08,02:50,3.6,northeast,7.1
2023/09/08,03:00,3.5,east-northeast,6.5
2023/09/08,03:10,3.5,northeast,7.7
2023/09/08,03:20,3.6,northeast,8.0
2023/09/08,03:30,3.5,east-northeast,7.9
2023/09/08,03:40,3.6,east-northeast,8.5
2023/09/08,03:50,3.6,east-northeast,7.5
2023/09/08,04:00,3.7,east-northeast,7.9
2023/09/08,04:10,3.6,northeast,8.2
2023/09/08,04:20,3.8,east-northeast,7.6
2023/09/08,04:30,3.3,northeast,6.3
2023/09/08,04:40,3.6,northeast,7.1
2023/09/08,04:50,3.6,northeast,6.7
2023/09/08,05:00,3.6,northeast,6.5
2023/09/08,05:10,3.7,northeast,6.5
2023/09/08,05:20,3.5,northeast,6.2
2023/09/08,05:30,3.7,northeast,5.2
2023/09/08,05:40,3.8,northeast,5.5
2023/09/08,05:50,3.5,northeast,4.6
2023/09/08,06:00,3.5,northeast,4.8
2023/09/08,06:10,3.6,north-northeast,4.9
2023/09/08,06:20,3.8,northeast,5.1
2023/09/08,06:30,3.5,northeast,4.7
2023/09/08,06:40,3.6,northeast,4.4
2023/09/08,06:50,3.8,northeast,3.3
2023/09/08,07:00,3.6,north-northeast,3.7
2023/09/08,07:10,3.8,northeast,3.0
2023/09/08,07:20,3.6,northeast,3.7
2023/09/08,07:30,3.8,north-northeast,2.5
2023/09/08,07:40,3.7,north,3.3
2023/09/08,07:50,3.6,north,3.5
2023/09/08,08:00,3.6,north-northwest,3.1
2023/09/08,08:10,3.6,north,2.6
2023/09/08,08:20,3.7,north,2.5
2023/09/08,08:30,3.5,north-northeast,1.9
2023/09/08,08:40,3.6,north-northeast,2.6
2023/09/08,08:50,3.6,north-northeast,3.4
2023/09/08,09:00,3.6,north-northeast,2.9
2023/09/08,09:10,3.7,north,3.1
2023/09/08,09:20,3.5,north-northeast,4.0
2023/09/08,09:30,3.8,northeast,2.9
2023/09/08,09:40,3.6,north-northeast,4.1
2023/09/08,09:50,3.7,north-northeast,4.8
2023/09/08,10:00,3.7,north-northeast,4.7
2023/09/08,10:10,3.5,northeast,5.4
2023/09/08,10:20,3.5,northeast,4.6
2023/09/08,10:30,3.5,north-northeast,4.6
2023/09/08,10:40,3.6,north-northeast,4.4
2023/09/08,10:50,3.6,north-northeast,4.7
2023/09/08,11:00,3.6,north-northeast,4.6
2023/09/08,11:10,3.7,north-northeast,4.3
2023/09/08,11:20,3.6,north-northeast,4.9
2023/09/08,11:30,3.6,north-northeast,6.1
2023/09/08,11:40,3.7,north-northeast,5.9
2023/09/08,11:50,3.6,north-northeast,6.6
2023/09/08,12:00,3.8,north-northeast,7.5
2023/09/08,12:10,3.5,north-northeast,6.7
2023/09/08,12:20,3.7,north-northeast,6.1
2023/09/08,12:30,3.8,north-northeast,6.5
2023/09/08,12:40,3.7,north-northeast,6.2
2023/09/08,12:50,3.7,north-northeast,5.9
2023/09/08,13:00,3.7,north,6.5
2023/09/08,13:10,3.7,north-northeast,7.1
2023/09/08,13:20,3.6,north-northeast,7.2
2023/09/08,13:30,3.6,north-northeast,6.8
2023/09/08,13:40,3.5,north-northeast,7.2
2023/09/08,13:50,3.7,north-northeast,7.4
2023/09/08,14:00,3.6,north-northeast,6.3
2023/09/08,14:10,3.6,north-northeast,7.3
2023/09/08,14:20,3.6,north-northeast,7.5
2023/09/08,14:30,3.7,northeast,7.4
2023/09/08,14:40,3.4,east-northeast,8.5
2023/09/08,14:50,3.7,east-northeast,7.5
2023/09/08,15:00,3.6,east-northeast,6.7
2023/09/08,15:10,3.8,east-northeast,4.7
2023/09/08,15:20,3.7,east,6.4
2023/09/08,15:30,3.8,east-southeast,14.7
2023/09/08,15:40,3.6,east-southeast,5.2
2023/09/08,15:50,3.7,east-southeast,6.9
2023/09/08,16:00,3.6,east-southeast,7.1
2023/09/08,16:10,3.7,east-southeast,7.4
2023/09/08,16:20,3.7,southeast,11.1
2023/09/08,16:30,3.6,southeast,8.8
2023/09/08,16:40,3.6,southeast,10.6
2023/09/08,16:50,3.7,southeast,9.0
2023/09/08,17:00,3.5,southeast,9.8
2023/09/08,17:10,3.5,southeast,10.8
2023/09/08,17:20,3.7,southeast,9.0
2023/09/08,17:30,3.7,southeast,7.6
2023/09/08,17:40,3.7,southeast,4.7
2023/09/08,17:50,3.5,-,CALM
2023/09/08,18:00,3.7,east-southeast,9.7
2023/09/08,18:10,3.6,east-southeast,7.0
2023/09/08,18:20,3.5,east,7.5
2023/09/08,18:30,3.5,east,7.6
2023/09/08,18:40,3.7,east,7.2
2023/09/08,18:50,3.5,east,10.7
2023/09/08,19:00,3.6,east,9.3
2023/09/08,19:10,3.7,east,10.9
2023/09/08,19:20,3.6,east,11.6
2023/09/08,19:30,3.7,east-southeast,12.2
2023/09/08,19:40,3.7,east,11.9
2023/09/08,19:50,3.6,-,CALM
2023/09/08,20:00,3.5,east,11.9
2023/09/08,20:10,3.7,east,11.0
2023/09/08,20:20,3.5,-,CALM
2023/09/08,20:30,3.8,-,CALM
2023/09/08,20:40,3.7,east-southeast,15.3
2023/09/08,20:50,3.8,-,CALM
2023/09/08,21:00,3.6,-,CALM
2023/09/08,21:10,3.7,-,CALM
2023/09/08,21:20,3.6,east,13.8
2023/09/08,21:30,3.7,east-southeast,14.9
2023/09/08,21:40,3.7,-,CALM
2023/09/08,21:50,3.6,-,CALM
2023/09/08,22:00,3.7,east-southeast,16.0
2023/09/08,22:10,3.7,east-southeast,14.7
2023/09/08,22:20,3.6,east-southeast,14.7
2023/09/08,22:30,3.8,east-southeast,13.5
2023/09/08,22:40,3.6,east-southeast,13.0
2023/09/08,22:50,3.7,east-southeast,13.6
2023/09/08,23:00,3.6,east-southeast,14.1
2023/09/08,23:10,3.7,east-southeast,15.3
2023/09/08,23:20,3.8,-,CALM
2023/09/08,23:30,3.5,-,CALM
2023/09/08,23:40,3.6,-,CALM
2023/09/08,23:50,3.6,-,CALM
